[Iaude] MPEC K202: 2020 KU5 [a=1.44,e=0.19,i=28.4,H=23.3]

mpec at marsden.cfa.harvard.edu mpec at marsden.cfa.harvard.edu
Wed May 27 17:12:14 EDT 2020


M.P.E.C. 2020-K202                                 Issued 2020 May 27, 21:10 UT

     The Minor Planet Electronic Circulars contain information on unusual
         minor planets and routine data on comets.  They are published
    on behalf of Division F of the International Astronomical Union by the
          Minor Planet Center, Smithsonian Astrophysical Observatory,
                          Cambridge, MA 02138, U.S.A.

             Prepared using the Tamkin Foundation Computer Network

                              MPC at CFA.HARVARD.EDU
            URL https://www.minorplanetcenter.net/    ISSN 1523-6714

                                    2020 KU5                                    


Observations:
     K20K05U* C2020 05 25.28124313 44 09.508-04 56 28.95         21.45wUEK202F51
     K20K05U  C2020 05 25.29459813 44 11.411-04 54 38.13         21.27wUEK202F51
     K20K05U  C2020 05 25.30570413 44 12.988-04 53 06.23         21.44wUEK202F51
     K20K05U  C2020 05 25.31681513 44 14.572-04 51 34.04         21.47wUEK202F51
     K20K05U  C2020 05 26.20469 13 46 35.55 -02 50 55.5          21.5 GVEK202I52
     K20K05U  C2020 05 26.21426 13 46 36.94 -02 49 39.0          21.2 GVEK202I52
     K20K05U  C2020 05 26.21905 13 46 37.62 -02 49 00.2          21.7 GVEK202I52
     K20K05U ^C2020 05 26.29235113 46 50.089-02 39 03.32         21.36GVEK202568
     K20K05U ^C2020 05 26.29329613 46 50.222-02 38 55.73         21.35GVEK202568
     K20K05U ^C2020 05 26.29518213 46 50.489-02 38 40.62         21.34GVEK202568
     K20K05U pC2020 05 27.85505013 50 54.89 +00 43 15.6          21.2 GVEK202L01
     K20K05U KC2020 05 27.86148313 50 55.86 +00 44 03.7          21.0 GVEK202L01

Observer details:
568 Mauna Kea.  Observers R. Wainscoat, C. Wipper, A. Petric.  Measurers R.
    Weryk, R. Wainscoat.  3.6-m Canada-France-Hawaii Telescope + CCD.
F51 Pan-STARRS 1, Haleakala.  Observers J. Bulger, T. Lowe, A. Schultz, M.
    Willman.  Measurers K. Chambers, S. Chastel, T. de Boer, L. Denneau, J.
    Fairlamb, H. Flewelling, M. Huber, C.-C. Lin, E. Magnier, Y. Ramanjooloo,
    R. Wainscoat, R. Weryk.  1.8-m Ritchey-Chretien + CCD.
I52 Steward Observatory, Mt. Lemmon Station.  Observer D. C. Fuls.  Measurers
    E. J. Christensen, G. A. Farneth, D. C. Fuls, A. R. Gibbs, A. D. Grauer,
    H. Groeller, R. A. Kowalski, S. M. Larson, G. J. Leonard, T. A. Pruyne, D.
    Rankin, R. L. Seaman, F. C. Shelly, K. W. Wierzchos.  1.0-m reflector +
    CCD.
L01 Visnjan Observatory, Tican.  Observer K. Korlevic.  1.0-m f/2.9 reflector
    + CCD.

Orbital elements:
2020 KU5                                                 Earth MOID = 0.1581 AU
Epoch 2020 May 31.0 TT = JDT 2459000.5                  Pan
M   1.32455              (2000.0)            P               Q
n   0.56747525     Peri.    4.76904     -0.48504041     +0.77901275
a   1.4449010      Node   236.76133     -0.81722234     -0.56550836
e   0.1908375      Incl.   28.36304     -0.31126107     +0.27081253
P   1.74           H   23.3           G   0.15           U   8
Residuals in seconds of arc
200525 F51  0.0   0.1-    200526 I52  0.3-  0.0     200526 568  0.0   0.1+
200525 F51  0.0   0.1+    200526 I52  0.2+  0.4-    200526 568  0.0   0.1+
200525 F51  0.0   0.0     200526 I52  0.1+  0.1-    200527 L01  0.4-  0.2+
200525 F51  0.1+  0.1+    200526 568  0.0   0.1+    200527 L01  0.4+  0.2-

Ephemeris:
2020 KU5                 a,e,i = 1.44, 0.19, 28                  q = 1.1692
Date    TT    R. A. (2000) Decl.     Delta      r    Elong.  Phase     V
2020 04 27    12 22 34.5 -61 35 50   0.2669  1.1894   127.9    41.9    22.4
...
2020 05 12    13 06 34.9 -37 38 25   0.1933  1.1749   145.6    29.0    21.4
...
2020 05 20    13 29 42.6 -17 53 57   0.1836  1.1707   147.3    27.8    21.2
...
2020 05 26    13 46 03.0 -03 18 07   0.1944  1.1693   140.3    33.6    21.5
2020 05 27    13 48 40.9 -01 05 38   0.1976  1.1692   138.8    34.8    21.6
2020 05 28    13 51 17.3 +01 01 49   0.2011  1.1692   137.3    36.0    21.6
...
2020 06 03    14 06 23.4 +11 53 49   0.2285  1.1697   128.3    42.9    22.1
...
2020 06 11    14 25 08.8 +21 46 04   0.2762  1.1728   118.6    49.5    22.7
...
2020 06 26    14 57 11.7 +30 59 04   0.3800  1.1854   107.1    55.0    23.6

M. P. C. Staff               (C) Copyright 2020 MPC           M.P.E.C. 2020-K202




More information about the Iaude mailing list